{"data":{"norad_id":54091,"intl_designator":"2022-136AS","name":"STARLINK-5221","alt_names":[],"object_type":"PAYLOAD","status":"ACTIVE","operator":null,"country":"US","launch_date":"2022-10-20","launch_site_code":"AFETR","launch_vehicle":null,"mission":null,"orbit_class":"UNKNOWN","rcs_meters":null,"size_class":null,"mass_kg":null,"dimensions":null,"purposes":["comms"],"wikipedia_slug":null,"has_3d_model":false,"image_url":null,"decayed_at":null,"tle_current":{"epoch":"2026-09-20T22:00:03.000096Z","epoch_age_seconds":53204,"freshness":"FRESH","line1":"1 54091U 22136AS  26263.91670139  .00005869  00000+0  33318-3 0  9996","line2":"2 54091  53.1608 176.5322 0002405  63.0586 313.5924 15.14280116  5796","mean_motion":15.14280116,"eccentricity":0.0002405,"inclination_deg":53.1608,"raan_deg":176.5322,"arg_perigee_deg":63.0586,"mean_anomaly_deg":313.5924,"bstar":0.00033318,"rev_number":579,"period_min":95.094691185921,"perigee_km":521.50516892443,"apogee_km":524.82469515375,"semimajor_km":6901.3019320391,"source":"CELESTRAK","updated_at":"2026-09-21T09:00:33.083683Z"}}}